Terminal Aerodrome Forecast
Issued by NWS Central Illinois

Home | Current Version | Previous Version | Text Only | Print | Product List | Glossary On
Versions: 1 2 3 4 5 6 7 8 9 10 11 12 13 14 15 16 17 18
928
FTUS43 KILX 060538
TAFPIA
TAF
KPIA 060538Z 0606/0706 10006KT 1SM BR OVC002
      TEMPO 0606/0609 2SM BR BKN008
     FM061100 VRB04KT 1/2SM FG OVC001
     FM061400 31006KT 2SM BR OVC005
     FM061600 30009KT 4SM BR BKN010
     FM061800 28011KT P6SM SCT012
     FM070000 28007KT P6SM SKC=

USA.gov is the U.S. government's official web portal to all federal, state and local government web resources and services.